Elefsis, Greece

7:11 AM EEST on April 24, 2017 (GMT +0300)
Elefsis Air Base

Weather History for LGEL - November, 2010

Change the Weather History Date:

Thursday, November 18, 2010

  Actual Average Record
Temperature  
Mean Temperature 60 °F -  
Max Temperature 69 °F 58 °F 73 °F (2003)
Min Temperature 51 °F 45 °F 42 °F (2011)
Degree Days  
Heating Degree Days 5    
Growing Degree Days 10 (Base 50)    
Moisture  
Dew Point 49 °F    
Average Humidity 71    
Maximum Humidity 88    
Minimum Humidity 43    
Precipitation  
Precipitation 0.00 in - - ()
Sea Level Pressure  
Sea Level Pressure 30.04 in    
Wind  
Wind Speed 5 mph ()    
Max Wind Speed 9 mph    
Max Gust Speed -    
Visibility 6.2 miles    
Events      
Averages and records for this station are not official NWS values.
T = Trace of Precipitation, MM = Missing Value Source: Averaged Metar Reports

Daily Weather History Graph

Daily Weather History Graph

Search for Another Location

Airport or City:

Trip Planner

Search our weather history database for the weather conditions in past years. The results will help you decide how hot, cold, wet, or windy it might be!

Date:

Astronomy

Nov. 18, 2010 Rise Set
Actual Time 7:09 AM EET 5:11 PM EET
Civil Twilight 6:41 AM EET 5:40 PM EET
Nautical Twilight 6:09 AM EET 6:12 PM EET
Astronomical Twilight 5:37 AM EET 6:43 PM EET
Moon 3:00 PM EET (11/18) 3:50 AM EET (11/18)
Length of Visible Light 10h 59m
Length of Day
10h 02m
Waxing Gibbous, 89% of the Moon is Illuminated
Nov 18
Waxing Gibbous
Nov 21
Full
Nov 28
Last Quarter
Dec 5
New
Dec 13
First Quarter

Hourly Weather History & Observations

Time (EET) Temp. Dew Point Humidity Pressure Visibility Wind Dir Wind Speed Gust Speed Precip Events Conditions
12:20 AM 59.0 °F 55.4 °F 88% 29.92 in 6.2 mi NNW 4.6 mph - N/A   Mostly Cloudy
12:50 AM 57.2 °F 53.6 °F 88% 29.92 in 6.2 mi NNW 4.6 mph - N/A   Mostly Cloudy
1:20 AM 57.2 °F 53.6 °F 88% 29.92 in 6.2 mi NNW 6.9 mph - N/A   Mostly Cloudy
1:50 AM 57.2 °F 53.6 °F 88% 29.92 in 6.2 mi NNW 6.9 mph - N/A   Scattered Clouds
2:20 AM 57.2 °F 53.6 °F 88% 29.92 in 6.2 mi Calm Calm - N/A   Scattered Clouds
2:50 AM 55.4 °F 51.8 °F 88% 29.95 in 6.2 mi NNW 4.6 mph - N/A   Scattered Clouds
3:20 AM 55.4 °F 51.8 °F 88% 29.95 in 6.2 mi NNW 4.6 mph - N/A   Scattered Clouds
3:50 AM 53.6 °F 50.0 °F 88% 29.95 in 6.2 mi NNW 4.6 mph - N/A   Partly Cloudy
4:20 AM 53.6 °F 50.0 °F 88% 29.95 in 6.2 mi NNW 4.6 mph - N/A   Partly Cloudy
4:50 AM 51.8 °F 48.2 °F 88% 29.95 in 6.2 mi North 5.8 mph - N/A   Partly Cloudy
5:20 AM 51.8 °F 48.2 °F 88% 29.95 in 6.2 mi North 5.8 mph - N/A   Partly Cloudy
5:50 AM 51.8 °F 48.2 °F 88% 29.98 in 6.2 mi North 5.8 mph - N/A   Partly Cloudy
6:20 AM 51.8 °F 48.2 °F 88% 29.98 in 6.2 mi North 5.8 mph - N/A   Partly Cloudy
6:50 AM 51.8 °F 48.2 °F 88% 29.98 in 6.2 mi NNW 4.6 mph - N/A   Partly Cloudy
7:20 AM 51.8 °F 48.2 °F 88% 29.98 in 6.2 mi Calm Calm - N/A   Partly Cloudy
7:50 AM 53.6 °F 50.0 °F 88% 30.01 in 6.2 mi North 5.8 mph - N/A   Scattered Clouds
8:20 AM 53.6 °F 50.0 °F 88% 30.01 in 6.2 mi North 5.8 mph - N/A   Mostly Cloudy
8:50 AM 59.0 °F 51.8 °F 77% 30.04 in 6.2 mi Variable 2.3 mph - N/A   Mostly Cloudy
9:20 AM 60.8 °F 53.6 °F 77% 30.04 in 6.2 mi Variable 2.3 mph - N/A   Mostly Cloudy
9:50 AM 62.6 °F 53.6 °F 72% 30.04 in 6.2 mi Calm Calm - N/A   Mostly Cloudy
10:20 AM 62.6 °F 51.8 °F 68% 30.04 in 6.2 mi Variable 3.5 mph - N/A   Mostly Cloudy
10:50 AM 64.4 °F 51.8 °F 64% 30.06 in 6.2 mi Variable 3.5 mph - N/A   Mostly Cloudy
11:20 AM 66.2 °F 50.0 °F 56% 30.06 in 6.2 mi Variable 2.3 mph - N/A   Mostly Cloudy
11:50 AM 66.2 °F 50.0 °F 56% 30.06 in 6.2 mi South 5.8 mph - N/A   Mostly Cloudy
12:20 PM 66.2 °F 48.2 °F 52% 30.06 in 6.2 mi SSW 9.2 mph - N/A   Mostly Cloudy
12:50 PM 66.2 °F 48.2 °F 52% 30.06 in 6.2 mi South 9.2 mph - N/A   Mostly Cloudy
1:20 PM 68.0 °F 50.0 °F 52% 30.06 in 6.2 mi SSW 8.1 mph - N/A   Mostly Cloudy
1:50 PM 68.0 °F 48.2 °F 49% 30.06 in 6.2 mi South 9.2 mph - N/A   Mostly Cloudy
2:20 PM 68.0 °F 46.4 °F 46% 30.06 in 6.2 mi SSW 5.8 mph - N/A   Mostly Cloudy
2:50 PM 68.0 °F 46.4 °F 46% 30.06 in 6.2 mi South 5.8 mph - N/A   Mostly Cloudy
3:20 PM 68.0 °F 44.6 °F 43% 30.06 in 6.2 mi SSW 6.9 mph - N/A   Mostly Cloudy
3:50 PM 69.8 °F 46.4 °F 43% 30.06 in 6.2 mi Variable 3.5 mph - N/A   Mostly Cloudy
4:20 PM 68.0 °F 46.4 °F 46% 30.06 in 6.2 mi Variable 3.5 mph - N/A   Mostly Cloudy
4:50 PM 68.0 °F 48.2 °F 49% 30.06 in 6.2 mi Variable 2.3 mph - N/A   Mostly Cloudy
5:20 PM 64.4 °F 48.2 °F 56% 30.06 in 6.2 mi Variable 2.3 mph - N/A   Mostly Cloudy
5:50 PM 62.6 °F 48.2 °F 59% 30.09 in 6.2 mi Variable 2.3 mph - N/A   Mostly Cloudy
6:20 PM 60.8 °F 48.2 °F 63% 30.09 in 6.2 mi Variable 3.5 mph - N/A   Mostly Cloudy
6:50 PM 59.0 °F 48.2 °F 67% 30.12 in 6.2 mi NNW 5.8 mph - N/A   Scattered Clouds
7:20 PM 59.0 °F 48.2 °F 67% 30.12 in 6.2 mi NNW 5.8 mph - N/A   Scattered Clouds
7:50 PM 57.2 °F 48.2 °F 72% 30.12 in 6.2 mi North 5.8 mph - N/A   Partly Cloudy
8:20 PM 57.2 °F 48.2 °F 72% 30.12 in 6.2 mi NNW 6.9 mph - N/A   Partly Cloudy
8:50 PM 57.2 °F 48.2 °F 72% 30.15 in 6.2 mi North 5.8 mph - N/A   Partly Cloudy
9:20 PM 57.2 °F 48.2 °F 72% 30.15 in 6.2 mi North 6.9 mph - N/A   Partly Cloudy
9:50 PM 57.2 °F 48.2 °F 72% 30.15 in 6.2 mi NNW 6.9 mph - N/A   Partly Cloudy
10:20 PM 57.2 °F 48.2 °F 72% 30.15 in 6.2 mi NNW 6.9 mph - N/A   Partly Cloudy
10:50 PM 57.2 °F 48.2 °F 72% 30.15 in 6.2 mi North 6.9 mph - N/A   Partly Cloudy
11:20 PM 55.4 °F 48.2 °F 77% 30.15 in 6.2 mi North 6.9 mph - N/A   Partly Cloudy
11:50 PM 57.2 °F 48.2 °F 72% 30.15 in 6.2 mi North 8.1 mph - N/A   Partly Cloudy